weather.gov     
National Weather Service

Regional Weather Roundup
NWS Homepage
This page is being discontinued on March 12, 2014.
The same data is available at this site. Please update your bookmarks.
Thank you, and we apologize for the inconvenience.
Please send an email to SR-SRH.Webmaster@noaa.gov with any concerns.


Current Version
Previous Version:    01  02  03  04  05  06  07  08  09  10  11  12  13  14  15  16  17  18  19  20  21  22  23  24  25  26  27  
[Printable]
307
ASUS44 KMOB 280510
RWRMOB
REGIONAL WEATHER ROUNDUP
NATIONAL WEATHER SERVICE MOBILE AL
1200 AM CDT THU AUG 28 2014

NOTE: "FAIR" INDICATES FEW OR NO CLOUDS BELOW 12,000 FEET WITH NO
      SIGNIFICANT WEATHER AND/OR OBSTRUCTIONS TO VISIBILITY.

  * THESE STATIONS ARE PART OF THE UNIVERSITY OF SOUTH ALABAMA
    MESONET AND ARE NOT UNDER NWS OR FAA QUALITY CONTROL.

ALZ061>064-280600-
COASTAL ALABAMA

CITY           SKY/WX    TMP DP  RH WIND       PRES   REMARKS
MOBILE REG APT CLEAR     75  74  96 CALM      30.02S
BROOKLEY FIELD CLEAR     75  73  93 CALM      30.02S
USA CAMPUS*      N/A     75  73  94 CALM      30.01R
DOG RIVER*       N/A     77  75  94 CALM      30.01S


CITY           SKY/WX    TMP DP  RH WIND       PRES   REMARKS
MOUNT VERNON*    N/A     70  68  94 CALM      30.02R
SARALAND*      NOT AVBL
BAY MINETTE*   NOT AVBL
LOXLEY*          N/A     73  72  94 CALM      30.02S
ROBERTSDALE*     N/A    N/A N/A N/A CALM      30.01S
FAIRHOPE*        N/A     73  72  94 CALM      30.00S
ELBERTA*         N/A     75  63  64 CALM      30.00S
FOLEY*         NOT AVBL
GRAND BAY*       N/A     75  73  94 CALM      29.99S
DAUPHIN ISLND* NOT AVBL
BON SCOUR NWR* NOT AVBL
GULF SHORES    PTCLDY    75  72  92 CALM      30.00S

$$

ALZ051>060-280600-
INTERIOR SOUTHWEST AND SOUTH CENTRAL ALABAMA

CITY           SKY/WX    TMP DP  RH WIND       PRES   REMARKS
GREENVILLE     CLEAR     68  64  87 CALM      30.02F
EVERGREEN      CLEAR     70  67  90 N3        30.03S
CASTLEBERRY*   NOT AVBL
ATMORE*          N/A     73  72  94 CALM      30.03F
DIXIE*         NOT AVBL
ANDALUSIA/OPP  CLEAR     74  65  73 CALM      30.02S
ANDALUSIA*     NOT AVBL
FLORALA APT    PTCLDY    71  65  81 CALM      30.03S
FLORALA*         N/A     70  66  88 CALM      30.00S

$$

FLZ001>006-280600-
WESTERN FLORIDA PANHANDLE

CITY           SKY/WX    TMP DP  RH WIND       PRES   REMARKS
PENSACOLA      CLEAR     77  70  79 N6        30.00S
NAS PENSACOLA  CLEAR     76  73  91 NW3       30.00S
MILTON         CLEAR     73  69  87 N3        30.01S
WHTNG S FIELD  PTCLDY    76  70  82 N3        30.01F


CITY           SKY/WX    TMP DP  RH WIND       PRES   REMARKS
WALNUT HILL*   NOT AVBL
JAY*           NOT AVBL
DUKE FIELD     PTCLDY    73  71  95 CALM      30.01F
CRESTVIEW      CLEAR     72  69  90 CALM      30.02F
VALPARAISO     PTCLDY    77  70  78 NW3       30.01S
DESTIN         CLEAR     80  73  79 CALM      30.00S

$$

MSZ076-079-280600-
INTERIOR SOUTHEAST MISSISSIPPI

CITY           SKY/WX    TMP DP  RH WIND       PRES   REMARKS
LEAKESVILLE*   NOT AVBL
AGRICOLA*      NOT AVBL

$$

MARINE OBSERVATIONS

STATION/POSITION TIME  TEMP    WIND        PRES    WAVE
                       AIR SEA DIR/SP/G            HT/PER
                 (UTC) (F)     (DEG/KT/KT) (MB)    (FT/S)
PASCAGOULA       0500   84     190/  3/  4 1015.7S
PETIT BOIS ISLND 0500   84     160/  4/  4 1016.3R
GRAND BAY        0400   84     190/  3     1017.0S
KATRINA CUT      0400   84     210/  2     1016.3S
CEDAR POINT      0400   83     210/  4     1015.9F
E DAUPHIN ISLAND 0355   83      CALM  /  2 1016.0R
MIDDLE BAY LIGHT 0400   84     230/  5     1015.6S
USCG MOBILE BAY  0500   82 86   CALM  /  1 1015.0S
STATE DOCKS      0500   83 86              1015.9S
MEAHER PARK      0400   84     230/  5     1015.6S
WEEKS BAY        0400   75                   N/A
FORT MORGAN      0500   84     240/  3/  4 1015.6R
12 S ORANGE BCH  0500   84 85  200/  2/  4 1016.0R   2/ 6
PENSACOLA BAY    0500   82 86  340/  3/  4 1016.1F
64 S DAUPHIN ISL 0445   85 85  130/  8/ 10 1015.9R

$$

SELECTED LOCATIONS ACROSS THE REGION

CITY           SKY/WX    TMP DP  RH WIND       PRES   REMARKS
NEW ORLEANS    MOCLDY    81  75  82 SE6       29.99S
GULFPORT       PTCLDY    80  73  79 CALM      30.00S
PASCAGOULA AP  PTCLDY    74  72  93 CALM      30.00S
PASCAGOULA*      N/A     77  73  88 CALM      30.00S
HATTIESBURG    CLEAR     76  71  85 CALM      30.02S
LAUREL         CLEAR    N/A N/A N/A CALM      30.03S
MERIDIAN       PTCLDY    70  64  81 CALM      30.02S
JACKSON        PTCLDY    73  66  78 CALM      30.01S
MONTGOMERY     PTCLDY    70  64  81 E3        30.02S
TROY           CLEAR     67  64  90 CALM      30.03S
KINSTON*       NOT AVBL
GENEVA*          N/A     70  64  83 SW5       30.03R
ASHFORD*       NOT AVBL
DOTHAN         CLEAR     68  62  81 CALM      30.05S
PANAMA CITY    CLEAR     76  71  85 CALM      30.00S

$$





U.S. Dept. of Commerce
NOAA National Weather Service
1325 East West Highway
Silver Spring, MD 20910
E-mail: w-nws.webmaster@noaa.gov
Page last modified: May 16, 2007
NATIONAL WEATHER SERVICE: for Safety, for Work, for Fun - FOR LIFE